Jackpot

Texas Poker Multi Jackpot System

Kini Telah hadir Jackpot SUPER ROYAL FLUSH

Kini Telah hadir Jackpot 2000 (khusus table VIP keatas).

Ikutilah global jackpot yang tersedia di system kami, dengan system jackpot terbaru dan pertama di indonesia, anda dapat membeli jackpot dengan harga 100 rupiah saja dan menangkan hadiahnya hingga puluhan juta rupiah.

Jackpot bukanlah suatu keharusan untuk dibeli, namun kami memberikan suatu fitur tambahan untuk member tercinta dari www.seksipoker88.com.

Terdapat tiga pilihan harga jackpot yang bisa anda beli yaitu :100,500,1000 dan 2000(khusus table VIP Keatas) rupiah.

Hadiah dari Multi jackpot system www.seksipoker88.com

  1. full house x 10 harga jackpot yang anda beli.
      (contoh:anda membeli 1000 maka:1000 X10 = 10.000)
  2. four of kind x 250 harga jackpot yang anda beli
      (contoh:anda membeli 1000 maka:1000 X250 = 250.000)
  3. Straight flush x 1200
      (contoh:anda membeli 1000 maka:1000 X1200 = 1.200.000)
  4. Royal flush x 10000 harga jackpot yang anda beli
      (contoh:anda membeli 1000 maka:1000 X10000 = 10.000.000)
  5. SUPER ROYAL FLUSH x 30000 harga jackpot yang anda beli
      (contoh:anda membeli 1000 maka:1000 X30000 = 30.000.000)

Kondisi kartu

  1. full house adalah kondisi kartu dimana kartu anda dan kartu tengah dengan total 7 kartu bisa mendapatkan nilai 5 kartu dengan kombinasi 1 tris(three of kind) dan 1 pair, contoh 3 kartu 10 dan 2 kartu 5
  2. Four of kind adalah kondisi kartu dimana kartu anda dan kartu tengah dengan total 7 kartu bisa mendapatkan nilai 5 kartu dengan kombinasi 4 kartu yang sama jumlah dan 1 kartu apapun juga contoh anda mendapatkan 4 buah kartu angka 3 dan 1 kartu apapun.
  3. Staright flush adalah kondisi kartu dimana kartu anda dan kartu tengah dengan total 7 kartu bisa mendapatkan nilai 5 kartu dengan kombinasi seri / staright dengan kembang yang sama contoh : urutan kartu dari angka 5, 6, 7, 8 , 9 10 dengan kembang yg sama misalnya as hati
  4. Royal flush adalah kondisi kartu dimana kartu anda dan kartu tengah dengan total 7 kartu bisa mendapatkan nilai 5 kartu dengan kombinasi seri / staright dengan kembang yang sama tetapi kartu tersebut haruslah dimulai dari 10. contoh 10, Queen, Jack, King dan aces dengan kembang yang sama
  5. Super Royal flush adalah kondisi kartu dimana Kedua kartu anda digabung dengan 3 kartu pertama meja haruslah royal flush. contoh kartu anda 10,Queen kembang sama dan 3 kartu pertama meja adalah Jack, King dan aces dengan kembang yang sama

Demikian adalah penjelasan dari Multi Jackpot www.seksipoker88.com terima kasih dan selamat bermain salam hoki dari kami

Texas Poker Jackpot Winner

TOP SUPER ROYAL FLUSH
No.TanggalNamaPriceWin
125/05 04:52SONGONG21Super Royal flush15,000,000
225/05 03:00WAMBE88Super Royal flush15,000,000
325/05 01:42NUVO199Super Royal flush15,000,000
425/05 01:25COPYWHIT3Super Royal flush6,000,000
525/05 00:47D0LPI3NDSuper Royal flush15,000,000
TOP ROYAL FLUSH
No.TanggalNamaPriceWin
125/05 07:45HEN_321Royal flush10,000,000
225/05 07:45BAKOK420Royal flush10,000,000
325/05 07:32INTERVIRoyal flush10,000,000
425/05 07:06KP8899HKXVRoyal flush5,000,000
525/05 06:23DIFA2007Royal flush5,000,000
TOP STRAIGHT FLUSH
No.TanggalNamaPriceWin
125/05 07:47JIHAN012Straight Flush240,000
225/05 07:44BANGSENG03Straight Flush240,000
325/05 07:38GHOSAHStraight Flush2,400,000
425/05 07:35TEMPIK01Straight Flush240,000
525/05 07:29ARZEN31Straight Flush240,000
LATEST JACKPOT
No.TanggalNamaPriceWin
125/05 07:49RM808Full House10,000
225/05 07:49GAZALI716Full House2,000
325/05 07:49ARAMONFull House2,000
425/05 07:49BATEDOS99Full House10,000
525/05 07:49T1KUZ05Full House2,000
625/05 07:49RAJADOIFull House5,000
725/05 07:49YULI_900Full House1,000
825/05 07:49EGHFull House1,000
925/05 07:49LAMBEUY777Full House5,000
1025/05 07:49MAHONS03Full House2,000
1125/05 07:49CH4NG3Full House5,000
1225/05 07:49PARTA97Full House500
1325/05 07:49CINTA1234Full House1,000
1425/05 07:49NFHSKHJCHDFull House5,000
1525/05 07:49NOBOY88Four Of A Kind125,000
1625/05 07:49BELES_12Full House2,000
1725/05 07:49BANTU124Four Of A Kind12,500
1825/05 07:49ONYCCFull House500
1925/05 07:48ANARIZKIFour Of A Kind250,000
2025/05 07:48T0M801Full House5,000
2125/05 07:48HANOEM777Full House20,000
2225/05 07:48QQUF9MXW09Full House1,000
2325/05 07:48C4SABTGFour Of A Kind50,000
2425/05 07:48JLBANKFull House5,000
2525/05 07:48AAL03Full House2,000
2625/05 07:48AMMETAKOOOFull House10,000
2725/05 07:48KUMENGERTIFull House10,000
2825/05 07:48F481Full House2,000
2925/05 07:48HALEFull House2,000
3025/05 07:48A98O788183Full House5,000
3125/05 07:48RAPHSODY88Four Of A Kind500,000
3225/05 07:48DWBTKIEM14Full House2,000
3325/05 07:48Q08AHFV530Full House5,000
3425/05 07:48MALAUNGCUIFull House5,000
3525/05 07:48AKALOHFull House5,000
3625/05 07:48LYCANNFull House5,000
3725/05 07:48TIOSANTI89Full House2,000
3825/05 07:48GOBANG78Full House5,000
3925/05 07:48SUNGKOK96Full House2,000
4025/05 07:48Y4JH2JAVO7Full House5,000
4125/05 07:48E3DF11FAFull House10,000
4225/05 07:48ADMRTH7BDHFull House10,000
4325/05 07:48B18YAN461Full House20,000
4425/05 07:48WARIK_2010Full House1,000
4525/05 07:48FL4SP0K83RFull House2,000
4625/05 07:48BD01744AFull House5,000
4725/05 07:48DOUSUSA999Full House2,000
4825/05 07:48BLUFFER19Full House5,000
4925/05 07:48SOCIIN99Full House1,000
5025/05 07:48HOKYPOKRFull House2,000

Domino Multi Jackpot System

Ikutilah global jackpot yang tersedia di system kami, dengan system jackpot terbaru dan pertama di indonesia, anda dapat membeli jackpot dengan harga 100 rupiah saja dan menangkan hadiahnya hingga puluhan juta rupiah.

Jackpot bukanlah suatu keharusan untuk dibeli, namun kami memberikan suatu fitur tambahan untuk member tercinta dari www.seksipoker88.com.

Terdapat tiga pilihan harga jackpot yang bisa anda beli yaitu :100,500 dan 1000 rupiah.

Hadiah dari Multi jackpot system www.seksipoker88.com

  1. Murni Kecil x 50 harga jackpot yang anda beli.
      (contoh:anda membeli 1000 maka:1000 X 50 = 50.000)
  2. Murni Besar x 50 harga jackpot yang anda beli
      (contoh:anda membeli 1000 maka:1000 X 50 = 50.000)
  3. BALAK x 100 harga jackpot yang anda beli
      (contoh:anda membeli 1000 maka:1000 X 100 = 100.000)
  4. ENAM DEWA x 6666 harga jackpot yang anda beli
      (contoh:anda membeli 1000 maka:1000 X 6666 = 6.666.000)

Demikian adalah penjelasan dari Multi Jackpot www.seksipoker88.com terima kasih dan selamat bermain salam hoki dari kami

Domino Jackpot Winner

TOP ENAM DEWA
No.TanggalNamaPriceWin
125/05 06:55BUL6OSOmurni enam3,333,000
225/05 01:58ACB97389murni enam6,666,000
325/05 01:51ESPOY88murni enam6,666,000
425/05 01:43SILEMAN88murni enam6,666,000
525/05 00:56MIDA88murni enam3,333,000
TOP BALAK
No.TanggalNamaPriceWin
125/05 07:43EC763A08balak10,000
225/05 07:39PROJOK878balak50,000
325/05 07:29JAC64Xbalak100,000
425/05 07:29SIBL333balak100,000
525/05 07:15TIGAObalak50,000
LATEST JACKPOT
No.TanggalNamaPriceWin
125/05 07:49GASOMlucky9950,000
225/05 07:49PROJOK878murni kecil50,000
325/05 07:45B3LADOSmurni besar50,000
425/05 07:43EC763A08balak10,000
525/05 07:42EKEY86murni besar50,000
625/05 07:42RAZEL909murni besar5,000
725/05 07:40PONCKImurni besar5,000
825/05 07:39PROJOK878balak50,000
925/05 07:37KWOK7murni besar50,000
1025/05 07:36RULLYANDROmurni besar50,000
1125/05 07:35SUDIANNURlucky9950,000
1225/05 07:34SLFImurni besar25,000
1325/05 07:32GENK18murni kecil50,000
1425/05 07:30RULIKINGlucky9925,000
1525/05 07:30EKEY86murni kecil50,000
1625/05 07:29JAC64Xbalak100,000
1725/05 07:29SIBL333balak100,000
1825/05 07:29GELEDEK1murni kecil25,000
1925/05 07:28RAVANELY92murni besar25,000
2025/05 07:25B3LADOSmurni kecil50,000
2125/05 07:25RULLYANDROmurni besar50,000
2225/05 07:24CUTZZZmurni besar5,000
2325/05 07:19PENAKPEmurni besar5,000
2425/05 07:17MMORO99murni besar50,000
2525/05 07:17IBBAJRAmurni besar50,000
2625/05 07:15TIGAObalak50,000
2725/05 07:12NINIENbalak50,000
2825/05 07:10BABA421balak100,000
2925/05 07:09HERWAN990murni kecil5,000
3025/05 07:09NANAS45balak50,000
3125/05 07:07GANDI101murni besar5,000
3225/05 07:06T4DLASVEGAS88murni kecil50,000
3325/05 07:05NINIENmurni besar25,000
3425/05 07:00CNDY2244balak50,000
3525/05 06:59CUTZZZmurni besar5,000
3625/05 06:58GOLEM999murni kecil50,000
3725/05 06:58TANTRA67murni besar25,000
3825/05 06:55TWINS21murni besar50,000
3925/05 06:55BUL6OSOmurni enam3,333,000
4025/05 06:55LIN_NANmurni besar5,000
4125/05 06:52JEHANUmurni besar50,000
4225/05 06:50TANTRA67murni kecil25,000
4325/05 06:49TALKONmurni besar25,000
4425/05 06:49AWIECOPE1murni besar50,000
4525/05 06:48SLFImurni besar50,000
4625/05 06:48SIMB0murni besar50,000
4725/05 06:48MAMII9191murni besar25,000
4825/05 06:47LIS_M4Nmurni besar25,000
4925/05 06:47RULLYJOZmurni besar50,000
5025/05 06:47ARO13murni besar50,000

Ceme Multi Jackpot System

Jackpot dilihat dari gabungan kartu pemain dengan kartu bandar. Bandar harus membeli jackpot sebanyak jumlah player yang sedang duduk. Sebagai contoh bila terdapat 3 pemain duduk bermain, dan bandar memutuskan untuk membeli jackpot Rp 1.000, maka pada periode tersebut bandar akan membeli jackpot sebanyak 3xRp1.000 = Rp3.000.

Jackpot bukanlah suatu keharusan untuk dibeli, namun kami memberikan suatu fitur tambahan untuk member tercinta dari www.seksipoker88.com.

Terdapat tiga pilihan harga jackpot yang bisa anda beli yaitu :100,500 dan 1000 rupiah.

Hadiah dari Multi jackpot system www.seksipoker88.com

  1. Murni Kecil x 50 harga jackpot yang anda beli.
      (contoh:anda membeli 1000 maka:1000 X 50 = 50.000)
  2. Murni Besar x 50 harga jackpot yang anda beli
      (contoh:anda membeli 1000 maka:1000 X 50 = 50.000)
  3. BALAK x 200 harga jackpot yang anda beli
      (contoh:anda membeli 1000 maka:1000 X 200 = 200.000)
  4. ENAM DEWA x 6666 harga jackpot yang anda beli
      (contoh:anda membeli 1000 maka:1000 X 6666 = 6.666.000)

Demikian adalah penjelasan dari Multi Jackpot www.seksipoker88.com terima kasih dan selamat bermain salam hoki dari kami

Ceme Jackpot Winner

TOP ENAM DEWA
No.TanggalNamaPriceWin
125/05 07:43GUNAK99murni enam6,666,000
225/05 07:39PEKA2018murni enam6,666,000
325/05 07:39OKTA8609murni enam6,666,000
425/05 07:30TEWAS123murni enam3,333,000
525/05 07:21RIZQ777murni enam666,600
TOP BALAK
No.TanggalNamaPriceWin
125/05 07:48SINTYAYOGIbalak200,000
225/05 07:48NAEK909balak20,000
325/05 07:48BCB6A99Bbalak200,000
425/05 07:45ANDRYHOKI9balak200,000
525/05 07:45NASIRFUADbalak20,000
LATEST JACKPOT
No.TanggalNamaPriceWin
125/05 07:49TISU02murni kecil25,000
225/05 07:49C1899442murni kecil50,000
325/05 07:48SINTYAYOGIbalak200,000
425/05 07:48NAEK909balak20,000
525/05 07:48BCB6A99Bbalak200,000
625/05 07:48RETY99murni kecil25,000
725/05 07:47KA_NGOLUmurni besar50,000
825/05 07:47COWOMANJAmurni besar50,000
925/05 07:47BOJESZZ25murni kecil50,000
1025/05 07:47POTAN82murni besar50,000
1125/05 07:47NORAK00murni besar50,000
1225/05 07:47PUSY18murni kecil50,000
1325/05 07:47DUREN363murni kecil5,000
1425/05 07:47HTCI035murni kecil5,000
1525/05 07:47DWBTRA3411murni kecil5,000
1625/05 07:46RADJA911murni kecil5,000
1725/05 07:46DT085murni kecil5,000
1825/05 07:46KARUCImurni kecil50,000
1925/05 07:46BO56IL4murni kecil5,000
2025/05 07:46WALUKOCIKmurni kecil25,000
2125/05 07:46F4J4R3murni kecil50,000
2225/05 07:46OCIN7777murni kecil25,000
2325/05 07:46TOPCORmurni kecil25,000
2425/05 07:46GALOGA11murni besar50,000
2525/05 07:45KASI_UANG8murni besar50,000
2625/05 07:45ABCD1988murni besar25,000
2725/05 07:45ADREL12murni besar5,000
2825/05 07:45ANDRYHOKI9balak200,000
2925/05 07:45NASIRFUADbalak20,000
3025/05 07:45IYO789murni besar50,000
3125/05 07:45AMB881184murni kecil50,000
3225/05 07:45GUUH99murni besar25,000
3325/05 07:45BAOZH41balak200,000
3425/05 07:44A35955A5murni kecil5,000
3525/05 07:44DAYOK21murni kecil5,000
3625/05 07:44CC3015CEmurni kecil50,000
3725/05 07:43NURKEMImurni kecil5,000
3825/05 07:43NABILAPASAmurni kecil5,000
3925/05 07:43NURKEMImurni kecil5,000
4025/05 07:43TRIYONO81balak200,000
4125/05 07:43GUNAK99murni enam6,666,000
4225/05 07:42YUDHIT_127murni besar5,000
4325/05 07:42ULALA95murni besar5,000
4425/05 07:42DWBTMON937murni kecil5,000
4525/05 07:42LAOETBLOKMmurni kecil50,000
4625/05 07:42BEGOLO19murni kecil50,000
4725/05 07:42DEWAHOKKY8murni besar50,000
4825/05 07:42BRWONG12balak200,000
4925/05 07:41PUSY18murni besar50,000
5025/05 07:41KA_NGOLUmurni besar50,000